Air Resources Laboratory banner image
Air Resources Laboratory web site National Oceanic and Atmospheric Administration (NOAA)

nh roundup


Office: GYX

ASUS41 KGYX 160905
RWRGYX
WEATHER ROUNDUP FOR MAINE AND NEW HAMPSHIRE
NATIONAL WEATHER SERVICE GRAY ME
500 AM EDT TUE AUG 16 2022

MEZ002-005-006-010-012-015-018-020-021-024-026-027-029-161000-
MAINE

CITY           SKY/WX    TMP DP  RH WIND       PRES   REMARKS
PORTLAND       FOG       60  60 100 NW3       30.05S VSB 3/4
SANFORD        CLEAR     52  52 100 W5        30.06S
BAR HARBOR     MOCLDY    60  57  89 N5        30.07S
WISCASSET      MOCLDY    61  58  90 CALM      30.06F
ROCKLAND       MOCLDY    63  61  93 SE5       30.06R
FRYEBURG       CLEAR     56  54  93 CALM      30.09R
LEWISTONAUBURN PTCLDY    56  56 100 CALM      30.08R
AUGUSTA        PTCLDY    60  57  89 NW3       30.08S
WATERVILLE     PTCLDY    60  58  92 NE5       30.05S
BANGOR         MOCLDY    59  56  89 N3        30.08R
GREENVILLE       N/A     60  56  86 NE3       30.10R
MILLINOCKET    PTCLDY    57  57 100 CALM      30.11R
HOULTON        MOCLDY    54  51  90 NE3       30.09R
PRESQUE ISLE   FOG       53  53 100 CALM      30.12R VSB 1
FRENCHVILLE    CLEAR     54  52  93 NW7       30.12R
CARIBOU        CLEAR     55  53  93 CALM      30.10S
$$

NHZ002-005-008-009-011-012-014-161000-
NEW HAMPSHIRE

CITY           SKY/WX    TMP DP  RH WIND       PRES   REMARKS
PORTSMOUTH     PTCLDY    59  56  90 CALM      30.04S
ROCHESTER      CLEAR     58  54  86 NW7       30.05S
NASHUA         CLEAR     55  55 100 NW5       30.06S
MANCHESTER     CLEAR     60  54  80 NW6       30.04S
CONCORD        CLEAR     52  50  93 CALM      30.07S
LACONIA          N/A     56  55  97 CALM      30.08R
BERLIN         PTCLDY    53  50  89 CALM      30.11R
WHITEFIELD     CLEAR     48  47  96 CALM      30.11R
JAFFREY        CLEAR     50  47  89 CALM      30.08S
KEENE          CLEAR     50  50 100 CALM        N/A
LEBANON        CLEAR     51  46  83 CALM      30.08S HAZE
MT WASHINGTON  MOCLDY    46  45  93 E14         N/A
$$

VTZ005-007-008-161000-
VERMONT

CITY           SKY/WX    TMP DP  RH WIND       PRES   REMARKS
MONTPELIER     CLEAR     54  49  83 CALM      30.13R
BURLINGTON     CLOUDY    60  54  80 CALM      30.06S
$$

MAZ007-012-024-CTZ003-RIZ002-NYZ038-NYZ072-161000-
SOUTHERN NEW ENGLAND AND NY

CITY           SKY/WX    TMP DP  RH WIND       PRES   REMARKS
BOSTON         PTCLDY    66  60  81 N7        30.04S
WORCESTER      CLEAR     61  53  75 N6        30.06S
NANTUCKET      MOCLDY    66  63  90 NE8       29.99S
PROVIDENCE     CLEAR     61  56  83 N7        30.02S
HARTFORD       PTCLDY    57  54  89 CALM      30.03S
ALBANY         PTCLDY    60  57  89 CALM      30.04R
NEW YORK CITY  PTCLDY    68  60  75 NE9       29.98F
$$

ANZ081-ANZ082-ANZ150-NHZ014-MEZ023>029-161000-
COASTAL MARINE OBSERVATIONS

STATION/POSITION TIME  TEMP    WIND        PRES    WAVE
                       AIR SEA DIR/SP/G            HT/PER
                 (UTC) (F)     (DEG/KT/KT) (MB)    (FT/S)
MOUNT DESERT ROC 0800   63      20/ 12/ 13 1017.1F
MATINICUS ROCK   0800   61      10/ 12/ 13 1017.1R
ISLE OF SHOALS   0800   65     360/  7/  8 1016.6F
JEFFREYS LEDGE   0826      68                N/A     1/ 9
CASHES LEDGE BUO 0850   67 67   30/  8/ 10 1016.7R   1/ 9
GEORGES BANK BUO 0850      72              1013.8F   5/ 6
$$

.............KEY..............
   WCI - WIND CHILL
   TC  - TEMPERATURE IN CELSIUS
   VSB - VISIBILITY IN MILES
   HX  - HEAT INDEX
   FAIR- INDICATES FEW OR NO CLOUDS BELOW 12,000 FT, WITH NO
         SIGNIFICANT WEATHER AND/OR OBSTRUCTIONS TO VISIBILITY.




ASUS41 KGYX 160910
RWRGYX
WEATHER ROUNDUP FOR MAINE AND NEW HAMPSHIRE
NATIONAL WEATHER SERVICE GRAY ME
500 AM EDT TUE AUG 16 2022

MEZ002-005-006-010-012-015-018-020-021-024-026-027-029-161000-
MAINE

CITY           SKY/WX    TMP DP  RH WIND       PRES   REMARKS
PORTLAND       FOG       60  60 100 NW3       30.05S VSB 3/4
SANFORD        CLEAR     52  52 100 W5        30.06S
BAR HARBOR     CLEAR     60  57  89 N5        30.07S
WISCASSET      CLEAR     61  58  90 CALM      30.06F
ROCKLAND       CLEAR     63  61  93 SE5       30.06R
FRYEBURG       CLEAR     56  54  93 CALM      30.09R
LEWISTONAUBURN CLEAR     56  56 100 CALM      30.08R
AUGUSTA        CLEAR     60  57  89 NW3       30.08S
WATERVILLE     PTCLDY    60  58  92 NE5       30.05S
BANGOR         MOCLDY    59  56  89 N3        30.08R
GREENVILLE       N/A     60  56  86 NE3       30.10R
MILLINOCKET    MOCLDY    57  57 100 CALM      30.11R
HOULTON        MOCLDY    54  51  90 NE3       30.09R
PRESQUE ISLE   CLOUDY    52  52 100 CALM      30.12R FOG
FRENCHVILLE    CLEAR     54  52  93 NW7       30.12R
CARIBOU        CLEAR     55  53  93 CALM      30.10S
$$

NHZ002-005-008-009-011-012-014-161000-
NEW HAMPSHIRE

CITY           SKY/WX    TMP DP  RH WIND       PRES   REMARKS
PORTSMOUTH     PTCLDY    59  56  90 CALM      30.04S
ROCHESTER      CLEAR     58  54  86 NW7       30.05S
NASHUA         CLEAR     55  55 100 NW5       30.06S
MANCHESTER     CLEAR     60  54  80 NW6       30.04S
CONCORD        CLEAR     52  50  93 CALM      30.07S
LACONIA          N/A     56  55  97 CALM      30.08R
BERLIN         PTCLDY    53  50  89 CALM      30.11R
WHITEFIELD     CLEAR     48  47  96 CALM      30.11R
JAFFREY        CLEAR     50  47  89 CALM      30.08S
KEENE          CLEAR     50  50 100 CALM        N/A
LEBANON        CLEAR     51  46  83 CALM      30.08S HAZE
MT WASHINGTON  MOCLDY    46  45  93 E14         N/A
$$

VTZ005-007-008-161000-
VERMONT

CITY           SKY/WX    TMP DP  RH WIND       PRES   REMARKS
MONTPELIER     CLEAR     54  49  83 CALM      30.13R
BURLINGTON     CLOUDY    60  54  80 CALM      30.06S
$$

MAZ007-012-024-CTZ003-RIZ002-NYZ038-NYZ072-161000-
SOUTHERN NEW ENGLAND AND NY

CITY           SKY/WX    TMP DP  RH WIND       PRES   REMARKS
BOSTON         PTCLDY    66  60  81 N7        30.04S
WORCESTER      CLEAR     61  53  75 N6        30.06S
NANTUCKET      MOCLDY    66  63  90 NE8       29.99S
PROVIDENCE     CLEAR     61  56  83 N7        30.02S
HARTFORD       PTCLDY    57  54  89 CALM      30.03S
ALBANY         PTCLDY    60  57  89 CALM      30.04R
NEW YORK CITY  PTCLDY    68  60  75 NE9       29.98F
$$

ANZ081-ANZ082-ANZ150-NHZ014-MEZ023>029-161000-
COASTAL MARINE OBSERVATIONS

STATION/POSITION TIME  TEMP    WIND        PRES    WAVE
                       AIR SEA DIR/SP/G            HT/PER
                 (UTC) (F)     (DEG/KT/KT) (MB)    (FT/S)
MOUNT DESERT ROC 0900   62      20/ 10/ 11 1017.3R
MATINICUS ROCK   0800   61      10/ 12/ 13 1017.1R
ISLE OF SHOALS   0800   65     360/  7/  8 1016.6F
JEFFREYS LEDGE   0856      67                N/A     1/ 9
CASHES LEDGE BUO 0850   67 67   30/  8/ 10 1016.7R   1/ 9
GEORGES BANK BUO 0850      72              1013.8F   5/ 6
$$

.............KEY..............
   WCI - WIND CHILL
   TC  - TEMPERATURE IN CELSIUS
   VSB - VISIBILITY IN MILES
   HX  - HEAT INDEX
   FAIR- INDICATES FEW OR NO CLOUDS BELOW 12,000 FT, WITH NO
         SIGNIFICANT WEATHER AND/OR OBSTRUCTIONS TO VISIBILITY.






Office: BOX ASUS41 KBOX 160910 RWRBOX REGIONAL WEATHER ROUNDUP NATIONAL WEATHER SERVICE BOSTON/NORTON MA 500 AM EDT TUE AUG 16 2022 NOTE: "FAIR" INDICATES FEW OR NO CLOUDS BELOW 12,000 FEET WITH NO SIGNIFICANT WEATHER AND/OR OBSTRUCTIONS TO VISIBILITY. MAZALL-161000- EASTERN MASSACHUSETTS CITY SKY/WX TMP DP RH WIND PRES REMARKS BOSTON PTCLDY 66 60 81 N7 30.04S BEVERLY CLEAR 55 53 93 N3 30.04R LAWRENCE CLEAR 61 58 90 CALM 30.06S BEDFORD CLEAR 57 54 89 CALM 30.03F BLUE HILL NOT AVBL NORWOOD CLEAR 54 50 86 CALM 30.03S FOG MARSHFIELD CLEAR 64 63 94 CALM 30.02S PLYMOUTH CLEAR 61 60 97 CALM 30.02S TAUNTON N/A N/A N/A N/A MISG 30.02S NEW BEDFORD CLEAR 59 59 100 N5 30.00F $$ MAZALL-161000- CAPE COD AND THE ISLANDS CITY SKY/WX TMP DP RH WIND PRES REMARKS FALMOUTH NOT AVBL HYANNIS CLEAR 65 62 90 N7 29.99S CHATHAM CLOUDY 67 61 81 N5 30.01S NANTUCKET MOCLDY 66 63 90 NE8 29.99S MARTHAS VNYRD CLEAR 64 61 90 N8 29.99F $$ MAZALL-161000- CENTRAL AND WESTERN MASSACHUSETTS CITY SKY/WX TMP DP RH WIND PRES REMARKS WORCESTER CLEAR 61 53 75 N6 30.06S FITCHBURG CLEAR 54 50 86 CALM 30.06S ORANGE CLEAR 52 49 89 CALM 30.07S SPRINGFIELD CLEAR 53 52 95 CALM 30.02R WESTFIELD CLEAR 56 53 90 CALM 30.04S NORTH ADAMS CLEAR 52 51 97 CALM 30.07S PITTSFIELD CLEAR 56 53 90 CALM 30.05S $$ RIZALL-161000- RHODE ISLAND CITY SKY/WX TMP DP RH WIND PRES REMARKS PROVIDENCE CLEAR 61 56 83 N7 30.02S NEWPORT CLEAR 62 60 93 NE7 30.01S BLOCK ISLAND CLEAR 63 61 93 NE10 30.00F SMITHFIELD CLEAR 57 54 89 NE6 30.04S WESTERLY CLEAR 57 56 96 N3 30.01S $$ CTZALL-161000- CONNECTICUT CITY SKY/WX TMP DP RH WIND PRES REMARKS BRADLEY INTL PTCLDY 57 54 89 CALM 30.03S HARTFORD CLEAR 59 56 89 CALM 30.02F BRIDGEPORT CLEAR 62 56 80 N7 30.01S DANBURY CLEAR 57 54 89 CALM 30.04S GROTON CLEAR 60 56 86 N8 30.00S NEW HAVEN CLEAR 61 56 83 N6 30.02S CHESTER FAIR 57 55 94 CALM 30.02S MERIDEN CLEAR 57 53 86 CALM 30.02S WILLIMANTIC CLEAR 54 53 97 N3 30.04F OXFORD CLEAR 57 52 83 N3 30.04S $$ MEZ002-015-021-024-NHZ003-005-008-011-012-014-VTZ005-008-161000- NORTHERN NEW ENGLAND CITY SKY/WX TMP DP RH WIND PRES REMARKS PORTLAND ME FOG 60 60 100 NW3 30.05S VSB 3/4 BANGOR ME MOCLDY 59 56 89 N3 30.08R CONCORD NH CLEAR 52 50 93 CALM 30.07S MANCHESTER NH CLEAR 60 54 80 NW6 30.04S NASHUA NH CLEAR 55 55 100 NW5 30.06S PORTSMOUTH NH PTCLDY 59 56 90 CALM 30.04S JAFFREY NH CLEAR 50 47 89 CALM 30.08S KEENE NH CLEAR 50 50 100 CALM N/A BURLINGTON VT CLOUDY 60 54 80 CALM 30.06S MT. WASHINGTON MOCLDY 46 45 93 E14 N/A $$ NYZ052-076-161000- EASTERN NEW YORK CITY SKY/WX TMP DP RH WIND PRES REMARKS ALBANY PTCLDY 60 57 89 CALM 30.04R NEW YORK CITY PTCLDY 68 60 75 NE9 29.98F $$ ANZALL-161000- MARINE OBSERVATIONS STATION/POSITION TIME TEMP WIND PRES VSBY WAVE AIR SEA DIR/SP/G HT/PER (UTC) (F) (DEG/KT/KT) (MB) (MI) (FT/S) BOSTON BUOY NOT AVBL BUZZARDS BAY NOT AVBL NANTUCKET SOUND NOT AVBL MASS BAY-STELLWA NOT AVBL ISLE OF SHOALS NOT AVBL S OF BLOCK IS NOT AVBL $$ ......................KEY......................... SKY/WX - SKY CONDITION/PRESENT WEATHER TMP - TEMPERATURE IN FAHRENHEIT DWPT - DEWPOINT IN FAHRENHEIT RH - RELATIVE HUMIDITY IN PERCENT WIND - DIRECTION AND SPEED IN MPH PRES - MEAN SEA LEVEL PRESSURE IN INCHES OF HG WCI - WIND CHILL INDEX VSB - VISIBILITY IN MILES HX - HEAT INDEX TC - TEMPERATURE IN CELSIUS VRB - VARIABLE WIND DIRECTION N/A - NOT AVAILABLE